Погода в Шугурове

Россия / Республика Мордовия     54°15′58″N   46°05′36″E
темп.,
°C
ветер,
м/с
пор.,
м/с
влажн.,
%
обл.,
%
осадки,
мм/ч
давл.,
гПа
погр.,
м
10 апреля, сб
сб1000:00−1ссв119821 0.0 102711
03:00−1ссв2398100 0.0 102856
06:00−1св3996100 0.0 1029237
09:00+1св51098100 0.2 1028444
12:00+1ссв51099100 0.9 1027415
15:00+1ссв51099100 4.4 1026369
18:00+1св3799100 0.9 1026284
21:00+1св3799100 1.0 1025230
11 апреля, вс
вс1100:00+1с3799100 0.6 1025207
03:00+1с3899100 0.8 1026251
06:00+1с3999100 0.0 1027296
09:00+3ссв4998100 0.0 1029317
12:00+5ссв4797100 0.0 1030347
15:00+4св4998100 1.4 1030331
18:00+4св4899100 3.2 1032274
21:00+3всв3799100 3.9 1032186
12 апреля, пн
пн1200:00+4св3798100 0.1 1032182
03:00+4всв4898100 0.1 1032179
06:00+4св3697100 0.0 1033152
09:00+8в589267 0.1 1033271
12:00+13в5677100 0.0 1032498
15:00+15в566899 0.0 1031704
18:00+13всв4883100 0.0 1031163
21:00+10в228899 0.0 103226
13 апреля, вт
вт1300:00+8в2287100 0.0 103210
03:00+7в228746 0.0 103210
06:00+7вюв228641 0.0 103210
09:00+13ююв366257 0.0 1031372
12:00+16ююв464229 0.0 10301051
15:00+17ююв463813 0.0 10291381
18:00+14ююв22565 0.0 102824
21:00+10ююв22643 0.0 102912
14 апреля, ср
ср1400:00+8ююв22690 0.0 102911
03:00+7ююв22720 0.0 102910
06:00+7юв11735 0.0 102910
09:00+13юв23565 0.0 1028257
12:00+17юв344459 0.0 10261002
15:00+19юв4537100 0.0 10251410
18:00+15юв345450 0.0 102448
21:00+11юв226144 0.0 102416